Salina, KS

5:24 PM CDT on September 23, 2017 (GMT -0500)
Salina Municipal

Weather History for KSLN - May, 2014

Change the Weather History Date:

Thursday, May 29, 2014

  Actual Average Record
Temperature  
Mean Temperature 78 °F 70 °F  
Max Temperature 89 °F 81 °F 96 °F (2000)
Min Temperature 66 °F 59 °F 41 °F (1984)
Degree Days  
Heating Degree Days 0 1  
Month to date heating degree days 99 94  
Since 1 July heating degree days 5397 4862  
Cooling Degree Days 13 6  
Month to date cooling degree days 172 91  
Year to date cooling degree days 208 116  
Growing Degree Days 27 (Base 50)    
Moisture  
Dew Point 63 °F    
Average Humidity 63    
Maximum Humidity 87    
Minimum Humidity 39    
Precipitation  
Precipitation 0.00 in 0.17 in 2.77 in (2013)
Month to date precipitation 3.95 4.40  
Year to date precipitation 7.39 11.64  
Sea Level Pressure  
Sea Level Pressure 29.93 in    
Wind  
Wind Speed 6 mph (East)    
Max Wind Speed 14 mph    
Max Gust Speed 17 mph    
Visibility 10 miles    
Events      
T = Trace of Precipitation, MM = Missing Value Source: NWS Daily Summary

Daily Weather History Graph

Daily Weather History Graph

Search for Another Location

Airport or City:

Trip Planner

Search our weather history database for the weather conditions in past years. The results will help you decide how hot, cold, wet, or windy it might be!

Date:

Astronomy

May. 29, 2014 Rise Set
Actual Time 6:08 AM CDT 8:47 PM CDT
Civil Twilight 5:37 AM CDT 9:18 PM CDT
Nautical Twilight 4:58 AM CDT 9:57 PM CDT
Astronomical Twilight 4:15 AM CDT 10:41 PM CDT
Moon 7:02 AM CDT (5/29) 9:39 PM CDT (5/29)
Length of Visible Light 15h 41m
Length of Day
14h 38m
New Moon, 1% of the Moon is Illuminated
May 29
New Moon
Jun 5
First Quarter
Jun 12
Full
Jun 19
Last Quarter
Jun 27
New

Hourly Weather History & Observations

Time (CDT) Temp. Heat Index Dew Point Humidity Pressure Visibility Wind Dir Wind Speed Gust Speed Precip Events Conditions
12:53 AM 75.2 °F - 64.4 °F 69% 29.98 in 10.0 mi ENE 3.5 mph - N/A   Mostly Cloudy
1:53 AM 75.0 °F - 64.0 °F 69% 29.93 in 10.0 mi SE 3.5 mph - N/A   Overcast
2:53 AM 73.4 °F - 64.4 °F 73% 29.97 in 10.0 mi Calm Calm - N/A   Partly Cloudy
3:53 AM 71.1 °F - 64.0 °F 78% 29.93 in 10.0 mi Calm Calm - N/A   Clear
4:53 AM 69.1 °F - 63.0 °F 81% 29.94 in 10.0 mi Calm Calm - N/A   Clear
5:53 AM 66.9 °F - 62.1 °F 84% 29.95 in 10.0 mi Calm Calm - N/A   Clear
6:53 AM 68.0 °F - 63.0 °F 84% 29.95 in 10.0 mi North 3.5 mph - N/A   Clear
7:53 AM 72.0 °F - 64.0 °F 76% 29.95 in 10.0 mi East 6.9 mph - N/A   Clear
8:53 AM 75.9 °F - 64.0 °F 67% 29.96 in 10.0 mi East 8.1 mph - N/A   Clear
9:53 AM 79.0 °F - 66.0 °F 64% 29.96 in 10.0 mi East 8.1 mph - N/A   Clear
10:53 AM 82.0 °F 84.1 °F 66.0 °F 58% 29.96 in 10.0 mi ESE 8.1 mph - N/A   Clear
11:53 AM 84.0 °F 85.4 °F 64.0 °F 51% 29.95 in 10.0 mi East 8.1 mph - N/A   Clear
12:53 PM 86.0 °F 86.8 °F 63.0 °F 46% 29.94 in 10.0 mi ESE 9.2 mph - N/A   Clear
1:53 PM 87.1 °F 87.8 °F 63.0 °F 44% 29.93 in 10.0 mi East 5.8 mph - N/A   Partly Cloudy
2:53 PM 88.0 °F 88.7 °F 63.0 °F 43% 29.91 in 10.0 mi ESE 6.9 mph - N/A   Scattered Clouds
3:53 PM 88.0 °F 87.6 °F 60.1 °F 39% 29.89 in 10.0 mi NE 9.2 mph - N/A   Scattered Clouds
4:53 PM 87.8 °F 87.1 °F 59.0 °F 38% 29.92 in 10.0 mi East 12.7 mph - N/A   Clear
5:53 PM 88.0 °F 87.1 °F 59.0 °F 37% 29.88 in 10.0 mi East 9.2 mph - N/A   Clear
6:53 PM 87.8 °F 87.1 °F 59.0 °F 38% 29.91 in 10.0 mi East 10.4 mph - N/A   Clear
7:53 PM 84.9 °F 84.8 °F 60.1 °F 43% 29.88 in 10.0 mi East 9.2 mph - N/A   Clear
8:53 PM 82.0 °F 82.4 °F 60.1 °F 47% 29.89 in 10.0 mi East 4.6 mph - N/A   Clear
9:53 PM 79.0 °F - 61.0 °F 54% 29.91 in 10.0 mi East 6.9 mph - N/A   Clear
10:53 PM 77.0 °F - 62.1 °F 60% 29.93 in 10.0 mi East 4.6 mph - N/A   Clear
11:53 PM 75.0 °F - 63.0 °F 66% 29.94 in 10.0 mi SE 8.1 mph - N/A   Clear